Regional Weather Roundup
Issued by NWS

Home | Current Version | Previous Version | Graphics & Text | Print | Product List | Glossary On
Versions: 1 2 3 4 5 6 7 8 9 10 11 12 13 14 15 16 17 18 19 20 21 22 23 24 25 26 27 28 29 30 31 32 33 34 35 36 37 38 39 40 41 42 43 44 45 46 47 48 49 50
000
ASUS43 KBIS 260010
RWRND

NORTH DAKOTA REGIONAL WEATHER ROUNDUP
NATIONAL WEATHER SERVICE BISMARCK ND
700 PM CDT TUE APR 25 2017

NOTE: "FAIR" INDICATES FEW OR NO CLOUDS BELOW 12,000 FEET WITH NO
SIGNIFICANT WEATHER AND/OR OBSTRUCTIONS TO VISIBILITY.


NDZ001>003-009>011-017-260100-
NORTHWEST NORTH DAKOTA

CITY           SKY/WX    TMP DP  RH WIND       PRES   REMARKS
WILLISTON      PTSUNNY   40  25  55 E9        29.98R
6HR MIN TEMP:  37; 6HR MAX TEMP:  42;

MINOT          CLOUDY    43  26  51 N15       29.93R
MINOT AFB      CLOUDY    42  24  48 NE16      29.93R
$$

NDZ018>021-031>035-040>046-260100-
SOUTHWEST NORTH DAKOTA

CITY           SKY/WX    TMP DP  RH WIND       PRES   REMARKS
BISMARCK       CLOUDY    36  26  67 N13       29.90S
6HR MIN TEMP:  32; 6HR MAX TEMP:  36;

DICKINSON      CLOUDY    32  23  69 N15       29.89S
GARRISON         N/A     39  25  57 NE12      29.91S
6HR MIN TEMP:  32; 6HR MAX TEMP:  39;

HETTINGER ARPT CLOUDY    31  23  72 N15       29.88S
$$

NDZ004>008-012>016-024-026-027-054-260100-
NORTHEAST NORTH DAKOTA

CITY           SKY/WX    TMP DP  RH WIND       PRES   REMARKS
GRAND FORKS    CLOUDY    37  29  72 N22       29.88R
GRND FRKS AFB  CLOUDY    35  27  74 NE22G29   29.88R
DEVILS LAKE    CLOUDY    35  28  75 NE13      29.91R
$$

NDZ022-023-025-028>030-036>039-047>053-260100-
SOUTHEAST NORTH DAKOTA

CITY           SKY/WX    TMP DP  RH WIND       PRES   REMARKS
FARGO          CLOUDY    37  30  75 N21G35    29.78S
6HR MIN TEMP:  37; 6HR MAX TEMP:  39;

JAMESTOWN      CLOUDY    32  27  81 N23G29    29.84R WCI  19
$$




USA.gov is the U.S. government's official web portal to all federal, state and local government web resources and services.